Regional Weather Roundup
Issued by NWS Midland/Odessa, TX

Skip options and go directly to product.
Home | Oldest Version | Next Version | Current Version | All | Text Only | Save Text | Print | Product List | Glossary On

Skip product version selection by date and time.   
555
ASUS44 KMAF 290101
RWRMAF
MIDLAND AREA WEATHER ROUNDUP
NATIONAL WEATHER SERVICE MIDLAND TX
800 PM CDT THU APR 28 2016

...IN SOUTHWEST TEXAS AND SOUTHEAST NEW MEXICO...

CITY           SKY/WX    TMP DP  RH WIND       PRES   REMARKS
ALPINE         PTCLDY    83   9   6 SW12      29.80S
ANDREWS        FAIR      84  46  26 S14G22    29.67S
ARTESIA        CLEAR     81  18   9 SW12G17   29.66S
BIG SPRING     CLEAR     80  50  35 SE22G28   29.71R
CARLSBAD       CLEAR     83  12   7 W8        29.63S
DRYDEN           N/A     82  62  50 E22G32    29.66R
FORT STOCKTON  CLEAR     80  57  45 S22G38    29.65R
GUAD PASS      NOT AVBL
HOBBS          CLEAR     82  16   8 SE13G20   29.69R
MARFA          CLEAR     78  13   8 S13       29.78F
MIDLAND AIRPK  CLEAR     84  47  27 SE21      29.68S
MIDLAND INTL   CLEAR     82  52  35 SE25      29.67S
ODESSA         CLEAR     83  50  31 SE22G29   29.68R
PECOS          CLEAR     90  39  17 E17       29.60S
PRESIDIO       FAIR      91  16   6 S8        29.63F
SEMINOLE       CLEAR     82  22  11 S7        29.69R
SNYDER           N/A     78  55  44 SE17      29.71S
WINK           CLEAR     86  48  26 SE16G23   29.61S
$$
...OTHER STATIONS IN TEXAS...

CITY           SKY/WX    TMP DP  RH WIND       PRES   REMARKS
ABILENE        CLEAR     76  57  51 SE18      29.73S
AMARILLO       PTCLDY    65  53  65 E30G37    29.78R
AUSTIN         LGT RAIN  80  73  79 S12       29.74S
BROWNSVILLE    CLOUDY    80  76  87 SE12      29.69R
CORPUS CHRISTI PTCLDY    79  73  82 SE20      29.71S
DALLAS FTW     PTCLDY    80  56  43 E16       29.78S
DEL RIO        PTCLDY    82  70  66 E12       29.65R
EL PASO        FAIR      79  20  11 W15       29.67F
HOUSTON INT    CLOUDY    77  73  87 SE16      29.80R
LUBBOCK        PTCLDY    81  46  29 S18G33    29.69R
SAN ANGELO     CLEAR     79  60  52 SE15      29.70R
SAN ANTONIO    CLOUDY    79  72  79 E9        29.74R
WACO           PTCLDY    78  65  63 E6        29.76F
WICHITA FALLS  NOT AVBL
$$
...OTHER LOCATIONS IN NEW MEXICO...

CITY           SKY/WX    TMP DP  RH WIND       PRES   REMARKS
ALAMAGORDO     CLEAR     77  18  10 SW18      29.70S
ALBUQUERQUE    MOCLDY    71   9   9 S26G32    29.68S
CANNON AFB     PTCLDY    77  15   9 S18       29.70S
CLOVIS         CLEAR     75  19  12 SW14      29.72R
HOLLOMAN AFB   CLEAR     77  18  11 SW17      29.67F
ROSWELL        CLEAR     80  14   8 SW14      29.66R
RUIDOSO          N/A     63  16  16 S18G28    29.85S
SANTA FE       CLOUDY    61  27  27 SE16      29.73S
TRUTH OR CONSE CLEAR     72   9   8 SW24G37   29.67F
TUCUMCARI      CLEAR     65  46  50 NE23G29   29.71R
$$

USA.gov is the U.S. government's official web portal to all federal, state and local government web resources and services.